Precipitable_Water
0.19 0.20 0.21 0.19 0.19 0.20 0.19 0.17 0.15 0.14 0.16 0.20 0.27 0.33 0.36 0.39 0.41 0.42 0.42 0.42 0.43 0.44 0.43 0.43 0.42 0.43 0.45 0.45 0.45 0.47 0.47 0.45 0.41 0.38 0.34 0.33 0.30 0.28 0.24 0.23 0.24 0.24 0.22 0.21
0.17 0.20 0.20 0.17 0.19 0.19 0.19 0.19 0.19 0.19 0.16 0.26 0.30 0.34 0.37 0.38 0.40 0.39 0.39 0.40 0.42 0.43 0.42 0.40 0.37 0.35 0.33 0.32 0.32 0.30 0.26 0.25 0.24 0.21 0.21 0.20 0.16 0.16 0.16 0.17 0.18 0.18 0.18 0.18
0.15 0.20 0.19 0.12 0.15 0.17 0.18 0.20 0.19 0.16 0.19 0.27 0.29 0.32 0.35 0.38 0.40 0.39 0.39 0.41 0.42 0.42 0.42 0.42 0.38 0.36 0.33 0.32 0.30 0.26 0.22 0.19 0.17 0.14 0.13 0.13 0.14 0.15 0.15 0.16 0.16 0.16 0.16 0.16
0.18 0.19 0.09 0.13 0.21 0.21 0.20 0.21 0.24 0.23 0.25 0.28 0.31 0.35 0.38 0.40 0.39 0.40 0.40 0.41 0.43 0.43 0.43 0.43 0.40 0.36 0.35 0.33 0.28 0.23 0.20 0.17 0.14 0.14 0.14 0.16 0.16 0.16 0.17 0.17 0.18 0.18 0.18 0.19
0.16 0.14 0.14 0.15 0.21 0.21 0.20 0.17 0.24 0.23 0.25 0.28 0.32 0.33 0.32 0.39 0.41 0.41 0.41 0.43 0.44 0.45 0.45 0.43 0.38 0.37 0.35 0.31 0.26 0.22 0.18 0.15 0.16 0.17 0.17 0.17 0.17 0.18 0.19 0.19 0.19 0.20 0.21 0.21
0.20 0.15 0.11 0.14 0.22 0.28 0.27 0.15 0.22 0.23 0.24 0.24 0.29 0.22 0.26 0.36 0.39 0.40 0.42 0.43 0.43 0.44 0.43 0.40 0.38 0.37 0.34 0.29 0.24 0.19 0.17 0.18 0.19 0.19 0.19 0.18 0.19 0.20 0.23 0.24 0.23 0.24 0.24 0.25
0.20 0.19 0.19 0.24 0.27 0.30 0.14 0.14 0.24 0.27 0.29 0.30 0.27 0.30 0.35 0.38 0.38 0.41 0.42 0.43 0.44 0.43 0.40 0.39 0.39 0.37 0.31 0.27 0.21 0.19 0.21 0.21 0.21 0.21 0.23 0.26 0.27 0.28 0.28 0.27 0.26 0.25 0.25 0.26
0.21 0.18 0.14 0.26 0.27 0.20 0.24 0.29 0.31 0.31 0.30 0.31 0.34 0.35 0.37 0.39 0.39 0.40 0.40 0.41 0.42 0.41 0.40 0.40 0.39 0.33 0.28 0.22 0.22 0.24 0.24 0.23 0.24 0.26 0.29 0.28 0.27 0.27 0.27 0.26 0.24 0.24 0.24 0.24
0.20 0.18 0.25 0.28 0.27 0.33 0.34 0.32 0.33 0.34 0.35 0.35 0.34 0.34 0.37 0.38 0.40 0.41 0.41 0.41 0.42 0.40 0.39 0.38 0.35 0.30 0.23 0.22 0.25 0.23 0.22 0.22 0.25 0.27 0.27 0.28 0.26 0.24 0.23 0.24 0.24 0.24 0.25 0.25
0.22 0.23 0.25 0.28 0.33 0.34 0.35 0.33 0.34 0.35 0.35 0.36 0.34 0.37 0.38 0.41 0.42 0.41 0.41 0.40 0.39 0.37 0.35 0.31 0.28 0.23 0.21 0.24 0.24 0.23 0.24 0.25 0.27 0.26 0.26 0.25 0.25 0.25 0.25 0.25 0.25 0.26 0.26 0.25
0.23 0.26 0.29 0.31 0.33 0.32 0.32 0.34 0.34 0.37 0.37 0.36 0.37 0.36 0.38 0.41 0.43 0.43 0.42 0.41 0.40 0.37 0.31 0.26 0.21 0.18 0.20 0.19 0.20 0.21 0.23 0.23 0.24 0.24 0.23 0.22 0.24 0.25 0.26 0.28 0.28 0.27 0.26 0.26
0.18 0.27 0.27 0.30 0.32 0.33 0.32 0.32 0.32 0.34 0.34 0.38 0.38 0.36 0.39 0.40 0.42 0.41 0.40 0.39 0.37 0.32 0.27 0.21 0.19 0.19 0.19 0.21 0.24 0.23 0.23 0.24 0.24 0.24 0.23 0.24 0.24 0.26 0.29 0.29 0.28 0.28 0.29 0.28
0.26 0.31 0.32 0.32 0.34 0.36 0.33 0.33 0.30 0.33 0.35 0.35 0.38 0.39 0.40 0.40 0.41 0.40 0.38 0.37 0.32 0.27 0.22 0.18 0.17 0.17 0.20 0.24 0.26 0.26 0.26 0.25 0.23 0.23 0.22 0.23 0.25 0.26 0.24 0.25 0.27 0.28 0.28 0.28
0.35 0.35 0.30 0.32 0.30 0.34 0.33 0.31 0.29 0.30 0.37 0.38 0.39 0.40 0.40 0.39 0.40 0.39 0.37 0.33 0.29 0.21 0.16 0.16 0.16 0.19 0.25 0.28 0.27 0.25 0.25 0.23 0.23 0.22 0.23 0.26 0.27 0.27 0.25 0.24 0.23 0.24 0.26 0.27
0.34 0.35 0.32 0.33 0.33 0.32 0.32 0.27 0.25 0.28 0.33 0.35 0.37 0.38 0.39 0.38 0.38 0.36 0.32 0.28 0.21 0.16 0.16 0.17 0.23 0.25 0.27 0.26 0.25 0.24 0.23 0.23 0.23 0.25 0.25 0.26 0.27 0.25 0.25 0.25 0.24 0.24 0.25 0.25
0.32 0.31 0.30 0.29 0.29 0.28 0.29 0.29 0.28 0.32 0.33 0.34 0.35 0.36 0.37 0.37 0.35 0.31 0.28 0.19 0.14 0.16 0.23 0.24 0.23 0.24 0.25 0.25 0.26 0.25 0.23 0.24 0.24 0.24 0.24 0.25 0.25 0.25 0.25 0.25 0.25 0.25 0.23 0.23
0.30 0.27 0.27 0.26 0.28 0.30 0.32 0.34 0.34 0.35 0.35 0.36 0.37 0.38 0.37 0.34 0.30 0.26 0.18 0.16 0.22 0.24 0.23 0.23 0.23 0.23 0.23 0.26 0.25 0.24 0.24 0.22 0.22 0.22 0.22 0.25 0.25 0.24 0.26 0.26 0.26 0.25 0.23 0.23
0.36 0.33 0.32 0.33 0.32 0.33 0.34 0.35 0.37 0.37 0.37 0.38 0.38 0.37 0.34 0.29 0.24 0.18 0.16 0.22 0.24 0.24 0.24 0.23 0.23 0.24 0.25 0.24 0.24 0.25 0.22 0.22 0.22 0.21 0.22 0.24 0.25 0.26 0.27 0.26 0.26 0.25 0.23 0.22
0.35 0.32 0.35 0.36 0.37 0.36 0.36 0.36 0.38 0.40 0.39 0.39 0.37 0.33 0.29 0.26 0.21 0.17 0.20 0.23 0.24 0.23 0.23 0.24 0.24 0.24 0.24 0.25 0.25 0.23 0.23 0.23 0.21 0.19 0.22 0.25 0.25 0.27 0.26 0.26 0.27 0.26 0.24 0.22
0.36 0.35 0.35 0.37 0.38 0.36 0.36 0.39 0.40 0.39 0.39 0.38 0.34 0.30 0.26 0.22 0.18 0.19 0.22 0.23 0.24 0.24 0.25 0.24 0.25 0.25 0.24 0.25 0.24 0.23 0.24 0.21 0.18 0.18 0.22 0.25 0.25 0.25 0.26 0.28 0.28 0.27 0.24 0.22
0.35 0.34 0.34 0.34 0.35 0.36 0.38 0.40 0.40 0.39 0.38 0.35 0.31 0.27 0.23 0.19 0.19 0.22 0.22 0.21 0.24 0.25 0.25 0.25 0.25 0.23 0.24 0.25 0.25 0.24 0.22 0.19 0.17 0.18 0.22 0.24 0.25 0.25 0.27 0.28 0.29 0.28 0.26 0.25
0.36 0.35 0.34 0.34 0.34 0.35 0.38 0.40 0.40 0.39 0.36 0.34 0.31 0.27 0.21 0.19 0.21 0.22 0.23 0.22 0.24 0.24 0.25 0.25 0.25 0.24 0.26 0.26 0.24 0.23 0.20 0.17 0.16 0.18 0.22 0.25 0.25 0.25 0.27 0.28 0.29 0.29 0.28 0.27
0.37 0.37 0.35 0.34 0.33 0.34 0.36 0.37 0.38 0.38 0.36 0.34 0.31 0.26 0.22 0.21 0.22 0.21 0.21 0.24 0.24 0.25 0.25 0.26 0.25 0.25 0.26 0.24 0.22 0.20 0.18 0.17 0.16 0.18 0.23 0.25 0.25 0.26 0.27 0.29 0.31 0.31 0.30 0.28
0.40 0.38 0.38 0.37 0.37 0.39 0.35 0.35 0.37 0.38 0.38 0.37 0.34 0.30 0.26 0.22 0.22 0.24 0.25 0.25 0.25 0.26 0.27 0.27 0.26 0.25 0.25 0.23 0.21 0.19 0.18 0.17 0.17 0.19 0.24 0.26 0.25 0.26 0.28 0.30 0.32 0.32 0.31 0.30
0.43 0.43 0.43 0.43 0.43 0.46 0.43 0.40 0.38 0.36 0.38 0.38 0.37 0.34 0.31 0.26 0.23 0.24 0.26 0.26 0.26 0.27 0.27 0.27 0.24 0.23 0.23 0.22 0.20 0.18 0.18 0.17 0.17 0.21 0.25 0.25 0.25 0.26 0.28 0.31 0.33 0.33 0.33 0.32
0.43 0.44 0.43 0.44 0.47 0.52 0.51 0.46 0.40 0.37 0.38 0.38 0.38 0.36 0.34 0.30 0.26 0.25 0.27 0.27 0.26 0.27 0.28 0.26 0.22 0.22 0.23 0.21 0.20 0.18 0.18 0.17 0.18 0.22 0.26 0.26 0.25 0.26 0.27 0.31 0.33 0.34 0.34 0.34
0.53 0.55 0.55 0.55 0.50 0.54 0.55 0.50 0.44 0.39 0.40 0.40 0.39 0.38 0.35 0.33 0.28 0.25 0.26 0.26 0.26 0.27 0.27 0.25 0.22 0.22 0.22 0.21 0.20 0.18 0.18 0.17 0.19 0.23 0.27 0.27 0.25 0.25 0.27 0.31 0.34 0.36 0.36 0.36
Wind_Speed
12 15 16 17 17 15 15 16 13 14 13 13 12 12 10 9 9 8 8 8 7 7 6 6 5 5 5 5 5 5 6 7 8 9 10 11 12 13 15 16 17 18 20 22
12 15 14 14 13 13 15 18 19 20 22 19 16 12 12 12 11 11 10 9 9 8 7 7 6 6 7 7 8 8 8 9 10 12 13 14 15 16 17 18 20 21 23 24
12 14 17 11 9 9 9 11 13 15 15 13 12 12 13 13 13 13 12 11 10 10 9 9 9 9 9 10 11 11 12 13 14 15 16 17 18 20 21 22 24 25 26 27
14 16 9 9 11 11 13 14 13 15 15 13 13 13 14 14 14 14 13 13 12 12 11 11 11 11 12 13 14 15 16 17 18 19 20 21 23 24 25 26 27 28 29 30
11 13 19 10 7 11 11 13 11 13 15 15 14 15 17 16 16 16 15 15 14 13 13 13 14 14 15 16 17 18 19 20 21 22 24 25 26 27 28 29 30 31 32 34
11 12 11 10 12 13 12 10 9 12 15 14 13 15 16 15 16 17 17 17 16 15 16 16 17 18 18 19 21 22 23 24 25 26 27 28 29 30 31 32 33 34 36 37
11 12 13 14 10 9 11 12 17 18 19 17 17 18 17 17 17 18 18 17 18 18 19 20 20 21 22 23 24 25 25 26 27 27 28 29 30 32 33 34 35 36 38 38
8 10 12 6 8 10 14 17 17 18 20 21 22 21 21 20 20 19 19 19 20 21 21 22 23 24 25 26 26 26 27 27 28 28 30 31 32 34 35 36 37 38 39 40
10 11 12 12 16 16 17 17 18 20 22 23 24 25 26 25 23 23 22 22 23 23 23 24 25 26 27 28 28 28 28 28 29 30 32 33 35 36 37 38 38 39 40 41
14 14 17 18 18 19 20 19 19 19 19 18 19 21 22 22 22 23 23 24 24 24 25 26 27 28 29 29 29 29 30 31 31 32 34 35 37 37 38 39 40 41 42 42
18 21 21 20 17 14 16 18 19 19 19 19 19 19 18 17 17 19 20 21 23 25 26 27 28 29 29 29 29 29 31 32 33 35 36 37 38 38 39 40 41 42 42 42
16 17 17 18 15 16 18 20 20 21 21 17 17 17 16 16 16 16 17 18 20 22 24 26 28 29 28 28 29 30 32 33 34 36 37 38 38 38 39 39 39 40 41 42
19 18 19 19 19 19 19 18 19 19 18 17 16 15 14 14 14 15 16 18 20 21 23 25 26 27 27 28 29 30 32 33 34 35 36 36 36 36 36 36 38 39 40 42
19 19 20 19 19 17 19 21 22 19 17 15 14 14 14 14 15 15 17 18 20 21 23 25 25 26 27 29 31 32 32 34 34 33 33 33 33 34 35 36 37 39 41 43
20 19 20 20 20 21 22 21 20 18 16 15 15 14 14 14 15 16 17 19 21 23 24 24 26 27 28 29 30 31 32 31 31 31 32 33 33 33 34 36 38 41 42 43
16 17 18 20 22 21 20 18 17 16 15 14 13 13 14 15 16 17 18 20 22 23 24 26 28 29 29 29 29 29 29 29 30 30 30 30 31 32 33 35 37 40 41 42
17 19 19 19 19 18 18 17 17 16 14 14 15 15 15 16 17 18 20 21 22 24 26 28 28 27 26 27 27 27 27 27 28 29 29 29 29 30 32 35 37 39 41 41
20 21 20 21 20 19 19 18 17 16 16 16 16 16 16 17 19 20 21 22 23 26 28 28 27 27 26 26 26 26 26 27 27 28 27 28 28 30 32 34 37 39 40 39
20 21 20 20 19 19 19 19 18 18 18 18 17 18 18 19 20 21 22 23 24 26 27 27 26 26 25 25 25 24 25 26 27 27 26 26 27 29 31 33 36 37 38 37
20 20 20 20 20 20 20 19 19 19 19 19 19 19 20 21 21 22 23 24 25 26 27 27 26 25 24 24 24 24 25 26 27 25 24 25 26 28 30 32 34 35 36 35
21 21 21 21 21 21 21 20 20 20 20 20 20 21 21 22 22 22 23 24 25 25 26 25 24 22 22 23 23 24 25 26 26 23 23 24 25 27 28 30 32 32 33 33
22 22 23 22 22 22 22 22 21 21 21 21 22 22 22 22 23 23 24 25 25 24 24 23 23 22 22 23 23 24 25 25 24 22 21 22 24 25 26 28 30 30 30 30
25 24 23 23 22 22 22 23 23 23 23 23 23 23 23 23 23 23 24 24 24 23 23 23 22 22 23 22 23 24 24 25 23 21 20 21 22 23 25 26 28 28 28 28
26 26 25 24 23 24 24 24 24 25 25 24 24 24 24 24 24 24 24 24 23 23 24 23 22 22 23 23 23 24 24 24 21 20 19 19 20 20 22 23 25 26 26 26
29 28 27 27 27 28 27 26 25 26 26 26 26 25 25 25 25 24 24 24 23 23 24 23 23 22 22 22 23 23 23 22 20 18 17 17 17 18 19 21 23 23 24 23
31 31 31 31 30 30 30 28 28 27 27 27 27 26 25 25 25 24 24 23 23 23 24 23 23 22 22 22 22 22 22 21 19 17 16 15 16 16 16 18 20 21 21 21
35 35 34 35 34 32 32 31 30 29 29 28 28 27 26 25 25 25 24 24 24 24 24 23 22 22 21 21 21 21 21 20 18 16 15 14 14 14 14 15 16 18 18 19
Wind_Direction
294 296 295 289 283 272 260 264 275 284 283 288 299 285 279 285 292 300 308 316 323 332 342 347 348 349 352 349 341 326 316 307 304 302 299 297 295 294 294 293 290 287 284 283
315 308 304 295 284 273 271 271 272 275 280 288 293 282 274 275 279 284 289 293 298 304 310 314 319 322 323 323 320 317 316 310 308 305 303 299 299 298 297 295 292 290 288 287
314 324 314 298 300 282 289 285 271 272 279 285 287 280 276 273 274 278 281 283 285 288 291 295 299 301 302 305 306 305 305 304 304 302 301 300 300 298 297 296 295 293 291 290
310 318 309 318 310 302 292 294 277 282 286 286 286 288 286 278 275 275 275 275 277 280 284 287 291 294 297 299 300 300 300 301 301 301 300 300 300 299 298 298 296 295 293 292
312 305 298 302 293 306 304 304 295 289 296 287 287 292 286 278 275 276 275 274 275 277 281 284 288 291 293 295 297 297 299 299 300 300 300 300 300 300 300 299 298 296 295 293
328 325 317 318 300 293 294 285 292 295 300 293 289 290 295 288 280 278 278 276 276 277 280 283 286 289 291 293 295 296 298 298 299 300 300 300 301 300 300 299 298 297 296 295
301 314 316 314 321 316 295 298 295 293 294 288 286 287 293 290 284 280 278 276 277 279 282 284 287 289 292 294 295 296 297 297 298 299 300 300 300 300 300 300 299 298 297 296
319 312 318 339 343 321 324 313 302 294 291 285 282 286 287 287 284 280 278 277 277 279 282 285 288 290 293 295 296 296 296 297 297 299 300 300 301 302 302 301 301 300 300 298
302 309 321 310 310 313 316 316 313 305 299 290 284 284 282 281 278 277 277 278 279 280 282 285 288 290 292 294 295 295 295 296 298 299 301 301 302 302 302 302 302 302 301 300
312 308 297 302 305 306 306 308 312 311 309 304 296 293 289 284 279 277 277 278 280 281 283 286 288 291 293 294 294 295 295 297 298 300 302 302 303 303 303 302 303 303 302 301
296 299 303 303 305 309 313 313 311 310 306 303 300 298 295 291 286 284 283 283 283 284 286 287 290 291 292 293 294 294 296 298 300 301 303 304 304 304 303 303 303 303 302 302
297 297 298 304 305 313 313 313 314 313 309 301 301 298 298 296 293 290 290 291 292 291 292 292 292 292 292 293 294 296 298 300 302 302 303 303 304 305 304 304 305 305 304 304
290 296 295 298 302 305 307 310 314 315 310 303 301 300 300 301 297 295 295 296 296 297 299 299 300 297 294 295 297 299 300 302 303 304 305 306 306 307 308 309 308 308 307 307
286 292 295 293 300 303 304 305 306 305 306 304 303 302 302 302 300 299 299 301 302 303 303 301 302 301 298 299 300 301 302 304 305 306 307 308 308 309 310 310 311 312 312 310
286 284 290 299 301 301 303 304 301 298 300 299 297 297 300 302 302 303 304 305 307 306 307 305 304 303 302 302 302 303 304 306 307 307 308 309 310 311 312 313 314 314 315 314
295 292 293 296 300 302 302 301 299 299 299 298 297 297 299 303 305 306 307 307 308 310 310 309 307 306 304 304 304 307 307 307 309 311 312 312 313 314 316 318 319 319 319 318
292 295 296 298 300 302 303 302 299 297 296 295 297 299 301 304 307 308 309 309 310 311 313 311 310 309 309 307 306 308 311 310 311 313 314 315 316 317 319 321 323 324 324 322
285 290 293 295 295 294 299 299 296 293 293 294 296 297 299 301 305 308 309 310 311 313 315 314 311 309 310 310 310 309 311 313 314 315 315 316 317 319 322 324 326 327 328 328
284 288 291 293 292 290 294 295 292 292 293 294 294 294 297 301 305 307 309 310 312 314 317 317 315 312 310 312 312 312 313 315 317 316 316 317 320 322 325 327 329 331 332 332
287 287 289 291 291 290 291 292 290 290 291 291 293 294 296 299 303 305 307 309 312 315 318 319 317 313 312 314 314 315 316 317 318 317 318 320 322 325 328 330 332 334 336 337
285 287 288 290 291 290 290 290 289 289 289 289 290 292 294 298 300 303 307 310 313 315 317 319 319 316 315 316 316 317 318 318 319 317 318 321 325 328 331 334 336 337 339 341
286 287 288 288 289 289 289 289 288 290 289 289 290 292 294 296 298 301 304 308 313 314 316 317 316 315 315 316 316 318 319 320 319 317 319 323 327 331 334 337 340 340 342 343
283 285 286 286 286 289 290 288 287 288 288 289 289 290 292 295 297 300 303 306 308 310 313 315 314 313 314 316 317 319 320 321 320 317 318 323 327 331 336 340 343 345 346 348
280 281 283 285 286 288 290 288 287 287 288 288 288 289 290 293 295 297 300 304 305 307 310 312 312 311 312 314 317 319 320 321 319 317 317 321 327 332 337 342 347 350 352 353
277 277 278 281 281 284 287 288 287 287 287 287 287 287 288 290 293 297 297 300 301 304 308 310 309 309 310 313 316 318 319 321 318 316 316 320 326 332 338 344 349 353 357 359
273 276 276 277 279 282 283 283 285 286 286 286 286 285 286 287 290 292 294 296 299 302 305 308 308 307 307 311 314 317 319 320 317 314 314 318 324 329 336 343 350 355 359 3
273 276 277 280 277 278 279 279 281 285 285 285 285 284 283 285 286 288 290 293 295 298 301 305 305 305 305 309 313 316 318 318 315 311 311 314 321 327 333 341 349 356 0 6